EW9826 Weather Reports


time (UTC)temp
F
wind
direction
speed
knots
gust
knots
rain 1hr
in
rain 24hr
in
rain mn
in
humidity
%
barometer
mb
20260831110050 63 238 8.7 17.4 0.03 0.37 0.11 85 1008.9
20260831105549 63 263 5.2 14.8 0.03 0.37 0.11 84 1008.8
20260831105050 63 255 7.8 14.8 0.03 0.37 0.11 83 1008.7
20260831104549 64 259 6.1 12.2 0.03 0.37 0.11 83 1008.6
20260831104050 64 231 4.3 12.2 0.02 0.36 0.10 86 1008.5
20260831103550 64 279 6.1 12.2 0.02 0.36 0.10 87 1008.4
20260831102050 63 252 5.2 13.0 0.02 0.36 0.10 84 1008.1
20260831101549 63 253 7.0 13.0 0.02 0.35 0.09 82 1008.2
20260831101050 64 298 6.1 17.4 0.00 0.34 0.08 79 1008.1
20260831095550 67 227 6.1 14.8 0.00 0.36 0.08 77 1007.9
20260831095050 66 229 6.1 18.2 0.00 0.39 0.08 78 1007.7
20260831093549 67 224 10.4 19.1 0.00 0.39 0.08 75 1007.6
20260831091050 66 222 5.2 18.2 0.00 0.39 0.08 77 1007.4
20260831090049 66 221 6.1 17.4 0.00 0.40 0.08 78 1007.2
20260831085549 66 223 10.4 18.2 0.00 0.40 0.08 79 1007.2
20260831085050 65 204 7.8 19.1 0.00 0.40 0.08 80 1007.2
20260831084549 65 223 6.1 17.4 0.01 0.40 0.08 81 1007.3
20260831081551 65 198 7.8 14.8 0.02 0.42 0.08 83 1007.0
20260831081050 65 248 8.7 18.2 0.02 0.42 0.08 84 1007.0
20260831080049 64 234 8.7 18.2 0.02 0.45 0.08 86 1006.7
20260831075549 64 241 11.3 20.9 0.02 0.46 0.08 86 1006.8
20260831074549 64 219 8.7 13.9 0.01 0.46 0.07 86 1006.6
20260831073050 64 207 7.8 14.8 0.01 0.45 0.06 86 1006.5
20260831072549 64 258 7.0 17.4 0.01 0.45 0.06 87 1006.5
20260831072050 63 216 6.1 15.6 0.01 0.45 0.06 88 1006.6
20260831071549 63 196 7.8 14.8 0.01 0.45 0.06 89 1006.7
20260831071050 63 208 6.1 15.6 0.01 0.45 0.06 90 1006.7
20260831063549 63 207 2.6 12.2 0.03 0.46 0.06 90 1007.0
20260831063049 63 210 3.5 8.7 0.04 0.46 0.06 91 1007.2
20260831061049 62 207 5.2 10.4 0.05 0.46 0.06 91 1007.5
20260831060049 63 185 6.1 13.0 0.05 0.47 0.06 91 1007.6
20260831055550 63 237 5.2 11.3 0.05 0.47 0.06 91 1007.5
20260831054049 63 214 6.1 13.0 0.03 0.47 0.04 89 1007.0
20260831053549 64 238 6.1 13.0 0.02 0.46 0.02 89 1007.0
20260831043549 63 203 3.5 8.7 0.00 0.46 0.01 87 1007.1
20260831043050 63 213 5.2 11.3 0.00 0.46 0.01 88 1007.2
20260831040049 64 230 2.6 8.7 0.00 0.46 0.01 88 1007.0
20260831035549 64 203 4.3 10.4 0.00 0.46 0.01 88 1007.0
20260831035049 64 229 4.3 8.7 0.00 0.46 0.01 88 1007.0
20260831034550 64 212 4.3 10.4 0.00 0.46 0.01 88 1007.0
20260831033049 64 207 3.5 7.0 0.00 0.46 0.01 88 1007.1
20260831032548 64 215 2.6 7.8 0.00 0.47 0.01 88 1007.1
20260831032049 64 211 4.3 8.7 0.00 0.47 0.01 88 1007.3
20260831031548 64 222 3.5 8.7 0.00 0.47 0.01 88 1007.3
20260831031049 64 248 4.3 12.2 0.00 0.47 0.01 88 1007.5
20260831030048 64 229 5.2 8.7 0.00 0.47 0.01 88 1007.5
20260831025549 64 182 5.2 7.8 0.00 0.47 0.01 88 1007.6
20260831025050 64 238 3.5 7.8 0.00 0.47 0.01 89 1007.6
20260831024549 64 201 3.5 7.8 0.00 0.47 0.01 89 1007.6
20260831024049 63 197 4.3 7.0 0.00 0.47 0.01 89 1007.6
20260831023549 63 224 2.6 7.8 0.00 0.47 0.01 90 1007.7
20260831023049 63 198 2.6 10.4 0.00 0.47 0.01 90 1007.6
20260831022548 63 206 4.3 7.0 0.00 0.47 0.01 91 1007.6
20260831022049 63 207 2.6 7.0 0.00 0.47 0.01 91 1007.6
20260831021548 63 207 2.6 6.1 0.00 0.47 0.01 92 1007.6
20260831021051 63 208 3.5 6.1 0.00 0.47 0.01 92 1007.6
20260831015049 63 206 2.6 5.2 0.00 0.47 0.01 92 1007.6
20260831014548 63 207 2.6 5.2 0.00 0.47 0.01 92 1007.6
20260831014050 63 207 1.7 4.3 0.00 0.47 0.01 92 1007.6
20260831013548 63 207 1.7 2.6 0.00 0.47 0.01 92 1007.6
20260831013049 63 207 0.9 2.6 0.00 0.47 0.01 92 1007.5
20260831012548 63 207 0.9 2.6 0.00 0.47 0.01 92 1007.6
20260831012049 63 207 2.6 6.1 0.00 0.47 0.01 92 1007.9
20260831011549 63 206 2.6 5.2 0.00 0.47 0.01 92 1008.0
20260831011051 63 206 2.6 6.1 0.00 0.47 0.01 92 1008.0
20260831010049 63 205 1.7 4.3 0.00 0.47 0.01 92 1008.0
20260831005548 63 205 1.7 6.1 0.00 0.47 0.01 92 1007.9
20260831005049 63 205 1.7 5.2 0.00 0.47 0.01 91 1007.9
20260830235548 63 213 0.9 2.6 0.01 0.64 0.01 93 1008.1
20260830235048 64 213 1.7 5.2 0.01 0.66 0.01 93 1008.2
20260830233549 64 212 4.3 6.1 0.01 0.69 0.01 93 1008.5
20260830233048 64 204 2.6 6.1 0.01 0.69 0.01 93 1008.6
20260830231548 64 198 3.5 7.0 0.00 0.69 0.00 94 1008.6
20260830231048 64 236 2.6 7.8 0.00 0.69 0.00 94 1008.6
20260830224549 64 172 1.7 5.2 0.00 0.69 0.00 94 1008.6
20260830223049 63 217 0.0 0.0 0.00 0.69 0.00 94 1008.6
20260830221049 64 217 0.9 1.7 0.00 0.69 0.00 94 1008.9
20260830215049 64 217 0.0 0.9 0.04 0.70 0.70 93 1009.1
20260830214548 64 217 0.9 1.7 0.04 0.70 0.70 93 1009.1
20260830214049 64 217 0.9 2.6 0.04 0.70 0.70 93 1009.1
20260830213548 64 217 0.9 1.7 0.04 0.70 0.70 93 1009.1
20260830212049 64 217 0.9 1.7 0.14 0.72 0.70 93 1009.2
20260830211547 64 217 1.7 2.6 0.25 0.72 0.70 92 1009.4
20260830211049 64 217 0.9 6.1 0.26 0.72 0.70 92 1009.4
20260830210048 64 252 3.5 7.8 0.26 0.73 0.70 92 1009.5
20260830205049 64 271 1.7 2.6 0.22 0.69 0.66 91 1009.6
20260830203049 64 271 3.5 7.0 0.21 0.69 0.65 88 1009.7
20260830201049 68 183 0.9 2.6 0.00 0.47 0.44 80 1009.6
20260830193048 68 222 1.7 2.6 0.00 0.47 0.44 81 1009.6
20260830192548 68 222 0.9 2.6 0.00 0.50 0.44 80 1009.6
20260830192049 68 222 0.9 2.6 0.00 0.55 0.44 81 1009.7
20260830191548 68 222 0.9 2.6 0.00 0.58 0.44 81 1009.6
20260830191049 68 222 0.9 2.6 0.00 0.63 0.44 81 1009.7
20260830190048 68 222 0.9 2.6 0.00 0.72 0.44 81 1009.7
20260830185548 68 222 1.7 2.6 0.00 0.73 0.44 81 1009.7
20260830183049 69 222 0.0 0.0 0.00 0.82 0.44 81 1009.9
20260830182548 69 222 0.0 0.0 0.00 0.83 0.44 81 1010.0
20260830182049 69 222 0.0 0.0 0.00 0.83 0.44 81 1010.0
20260830181548 69 222 0.0 0.0 0.00 0.83 0.44 80 1010.0
20260830175548 69 222 0.0 0.0 0.00 0.84 0.44 79 1010.0
20260830175048 69 222 0.0 0.0 0.00 0.87 0.44 79 1010.1
20260830174548 69 222 0.0 0.0 0.00 0.87 0.44 79 1010.1
20260830174049 70 222 0.0 0.0 0.00 0.87 0.44 78 1010.1
20260830173549 70 222 0.0 0.0 0.00 0.87 0.44 78 1010.2
20260830165548 70 222 1.7 2.6 0.00 0.89 0.44 76 1010.6
20260830163048 70 263 5.2 7.8 0.00 0.90 0.44 75 1010.6
20260830162547 70 244 3.5 6.1 0.00 0.90 0.44 75 1010.6
20260830162048 70 215 2.6 7.8 0.00 0.90 0.44 75 1010.6
20260830161547 70 201 2.6 6.1 0.00 0.90 0.44 75 1010.6
20260830161048 70 258 1.7 7.8 0.00 0.90 0.44 75 1010.7
20260830153547 70 234 4.3 8.7 0.00 0.91 0.44 73 1010.9
20260830152048 70 254 4.3 8.7 0.00 0.91 0.44 72 1011.1
20260830151547 70 263 4.3 10.4 0.00 0.91 0.44 72 1011.1
20260830150048 70 249 5.2 11.3 0.00 0.91 0.44 74 1011.1
20260830145547 70 249 5.2 12.2 0.00 0.91 0.44 75 1011.1
20260830144547 70 257 4.3 8.7 0.00 0.91 0.44 75 1011.2
20260830144049 70 243 5.2 10.4 0.00 0.91 0.44 75 1011.2
20260830143548 70 263 5.2 10.4 0.00 0.91 0.44 75 1011.1
20260830143048 70 242 5.2 8.7 0.00 0.91 0.44 75 1011.2
20260830142547 70 238 4.3 11.3 0.00 0.91 0.44 75 1011.2
20260830142047 70 225 5.2 8.7 0.00 0.91 0.44 76 1011.1
20260830141548 70 243 5.2 10.4 0.00 0.91 0.44 77 1011.1
20260830141048 70 254 3.5 10.4 0.00 0.91 0.44 79 1011.1
20260830134547 69 256 3.5 7.8 0.00 0.91 0.44 82 1011.1
20260830133047 69 255 4.3 10.4 0.00 0.91 0.44 82 1011.2
20260830132548 68 232 4.3 7.8 0.00 0.91 0.44 82 1011.2
20260830132048 69 242 5.2 10.4 0.00 0.91 0.44 82 1011.2
20260830125048 69 245 4.3 8.7 0.00 0.91 0.44 82 1011.1
20260830124547 69 254 5.2 8.7 0.00 0.91 0.44 82 1011.1
20260830124047 69 277 5.2 10.4 0.00 0.91 0.44 82 1011.0
20260830123547 69 315 4.3 11.3 0.00 0.91 0.44 82 1011.0
20260830123048 69 284 4.3 7.8 0.00 0.91 0.44 82 1011.0
20260830121547 69 277 5.2 10.4 0.00 0.91 0.44 83 1010.8
20260830121048 69 260 5.2 12.2 0.00 0.91 0.44 82 1010.8
20260830120047 68 276 7.0 11.3 0.00 0.91 0.44 83 1010.7
20260830115547 68 252 4.3 10.4 0.00 0.91 0.44 84 1010.6
20260830114047 68 280 6.1 10.4 0.00 0.91 0.44 84 1010.6
20260830113547 68 241 6.1 11.3 0.00 0.91 0.44 84 1010.6
20260830113048 68 286 7.8 12.2 0.00 0.91 0.44 84 1010.6
20260830112547 68 284 6.1 13.9 0.00 0.91 0.44 85 1010.6
20260830112048 68 252 4.3 10.4 0.00 0.91 0.44 87 1010.5